EW8956 Weather Reports


Display with metric or nautical units.
time (UTC)temp
F
wind
direction
speed
MPH
gust
MPH
rain 1hr
in
rain 24hr
in
rain mn
in
humidity
%
barometer
mb
20260906134603 75 113 1.0 8.0 0.00 0.04 0.00 81 1014.8
20260906133057 76 80 2.0 9.0 0.00 0.04 0.00 80 1014.9
20260906131601 76 0 2.0 7.0 0.00 0.04 0.00 81 1014.6
20260906130052 75 0 0.0 5.0 0.00 0.04 0.00 82 1014.7
20260906124556 75 0 0.0 2.0 0.00 0.04 0.00 83 1014.5
20260906123130 75 0 0.0 1.0 0.00 0.04 0.00 83 1014.6
20260906121553 75 0 0.0 6.0 0.00 0.04 0.00 85 1014.4
20260906120051 74 0 0.0 4.0 0.00 0.04 0.00 87 1014.4
20260906114601 73 117 0.0 4.0 0.00 0.04 0.00 88 1014.3
20260906113053 73 0 0.0 4.0 0.00 0.04 0.00 88 1014.0
20260906111559 73 0 0.0 4.0 0.00 0.04 0.00 89 1013.9
20260906110106 73 117 0.0 1.0 0.00 0.04 0.00 90 1013.9
20260906104556 73 0 0.0 1.0 0.00 0.04 0.00 90 1013.8
20260906103055 73 0 0.0 0.0 0.00 0.04 0.00 92 1013.6
20260906101554 73 0 0.0 0.0 0.00 0.04 0.00 92 1013.5
20260906100049 72 0 0.0 3.0 0.00 0.04 0.00 93 1013.3
20260906094605 72 0 0.0 4.0 0.00 0.04 0.00 93 1013.1
20260906093054 72 116 0.0 4.0 0.00 0.04 0.00 93 1013.0
20260906091602 72 0 0.0 3.0 0.00 0.04 0.00 93 1013.0
20260906084559 70 0 0.0 0.0 0.00 0.04 0.00 93 1012.6
20260906083053 70 0 0.0 0.0 0.00 0.04 0.00 93 1012.3
20260906081553 70 0 0.0 1.0 0.00 0.04 0.00 93 1012.2
20260906080052 70 0 0.0 0.0 0.00 0.04 0.00 92 1012.1
20260906074600 70 0 0.0 0.0 0.00 0.04 0.00 92 1012.2
20260906073055 70 0 0.0 0.0 0.00 0.04 0.00 92 1012.1
20260906071553 71 0 0.0 0.0 0.00 0.04 0.00 91 1012.3
20260906070053 71 0 0.0 1.0 0.00 0.04 0.00 92 1012.4
20260906064549 71 0 0.0 0.0 0.00 0.04 0.00 91 1012.5
20260906063059 71 0 0.0 0.0 0.00 0.04 0.00 91 1012.6
20260906061555 71 0 0.0 0.0 0.00 0.04 0.00 90 1012.6
20260906060053 71 0 0.0 0.0 0.00 0.04 0.00 90 1012.6
20260906054601 72 0 0.0 0.0 0.00 0.04 0.00 89 1012.6
20260906053106 72 0 0.0 0.0 0.00 0.04 0.00 89 1012.8
20260906051551 72 0 0.0 0.0 0.00 0.04 0.00 88 1013.0
20260906050059 72 0 0.0 2.0 0.00 0.04 0.00 88 1013.0
20260906044556 73 0 0.0 1.0 0.00 0.04 0.00 87 1013.1
20260906043100 73 0 0.0 1.0 0.00 0.04 0.00 86 1013.1
20260906041558 73 0 0.0 1.0 0.00 0.04 0.00 85 1013.3
20260906040110 74 0 0.0 1.0 0.00 0.04 0.00 84 1013.3
20260906034601 75 0 0.0 4.0 0.00 0.04 0.04 83 1013.3
20260906033108 74 0 0.0 2.0 0.00 0.04 0.04 84 1013.4
20260906031550 74 116 2.0 6.0 0.00 0.04 0.04 86 1013.3
20260906030052 74 0 0.0 0.0 0.00 0.04 0.04 85 1013.1
20260906024556 73 0 0.0 0.0 0.00 0.04 0.04 85 1012.9
20260906023056 74 0 0.0 0.0 0.00 0.04 0.04 85 1012.8
20260906021555 74 0 0.0 0.0 0.00 0.04 0.04 86 1012.6
20260906020103 74 0 0.0 0.0 0.00 0.04 0.04 83 1012.8
20260906014600 74 0 0.0 0.0 0.00 0.04 0.04 84 1012.7
20260906013106 74 0 0.0 0.0 0.00 0.04 0.04 83 1012.5
20260906011602 75 0 0.0 0.0 0.00 0.04 0.04 81 1012.5
20260906010048 75 0 0.0 0.0 0.00 0.04 0.04 80 1012.5
20260906004601 75 0 0.0 0.0 0.00 0.04 0.04 79 1012.4
20260906003053 76 0 0.0 0.0 0.00 0.04 0.04 79 1012.3
20260906001552 76 0 0.0 0.0 0.00 0.04 0.04 77 1012.2
20260906000100 77 0 0.0 0.0 0.00 0.04 0.04 75 1012.0
20260905234555 78 0 0.0 0.0 0.00 0.04 0.04 74 1011.8
20260905233051 79 0 0.0 0.0 0.00 0.04 0.04 72 1011.6
20260905231549 79 0 0.0 0.0 0.00 0.04 0.04 72 1011.4
20260905230055 79 0 0.0 0.0 0.00 0.04 0.04 73 1011.5
20260905224554 79 0 0.0 3.0 0.00 0.04 0.04 74 1011.6
20260905223049 79 0 0.0 1.0 0.00 0.04 0.04 74 1011.7
20260905221556 78 0 0.0 0.0 0.00 0.04 0.04 77 1011.7
20260905220054 78 0 0.0 0.0 0.00 0.04 0.04 78 1012.0
20260905214550 77 0 0.0 3.0 0.00 0.04 0.04 78 1012.2
20260905213047 78 201 0.0 4.0 0.00 0.04 0.04 79 1012.2
20260905211554 78 197 0.0 5.0 0.00 0.04 0.04 79 1012.3
20260905204550 78 0 0.0 4.0 0.00 0.04 0.04 78 1012.2
20260905203046 76 244 0.0 2.0 0.00 0.04 0.04 85 1011.7
20260905201555 75 0 0.0 2.0 0.00 0.04 0.04 85 1011.9
20260905200050 75 0 0.0 2.0 0.00 0.04 0.04 88 1012.3
20260905194549 75 0 1.0 3.0 0.02 0.04 0.04 87 1012.2
20260905193054 75 0 0.0 3.0 0.04 0.04 0.04 87 1012.1
20260905191557 76 0 0.0 4.0 0.04 0.04 0.04 83 1012.0
20260905190049 78 0 0.0 0.0 0.04 0.04 0.04 83 1012.1
20260905184623 82 0 0.0 8.0 0.02 0.02 0.02 71 1012.3
20260905183055 90 306 0.0 4.0 0.00 0.00 0.00 56 1011.6
20260905181558 92 0 0.0 3.0 0.00 0.00 0.00 54 1011.9
20260905180052 93 0 0.0 6.0 0.00 0.00 0.00 51 1012.4
20260905174623 94 306 0.0 4.0 0.00 0.00 0.00 52 1012.4
20260905173057 94 290 0.0 3.0 0.00 0.00 0.00 54 1012.6
20260905171550 93 0 0.0 3.0 0.00 0.00 0.00 53 1013.1
20260905170051 94 0 0.0 2.0 0.00 0.00 0.00 54 1013.4
20260905164557 92 0 0.0 3.0 0.00 0.00 0.00 54 1013.5
20260905163102 93 277 0.0 2.0 0.00 0.00 0.00 57 1013.7
20260905161551 92 0 0.0 1.0 0.00 0.00 0.00 56 1013.9
20260905160100 92 0 0.0 3.0 0.00 0.00 0.00 59 1014.0
20260905154614 92 0 0.0 4.0 0.00 0.00 0.00 58 1014.1
20260905153057 90 0 0.0 2.0 0.00 0.00 0.00 59 1014.2
20260905151552 90 0 0.0 4.0 0.00 0.00 0.00 61 1014.3
20260905150047 88 0 0.0 2.0 0.00 0.00 0.00 61 1014.4
20260905144554 88 0 0.0 2.0 0.00 0.00 0.00 64 1014.5
20260905143054 87 0 0.0 0.0 0.00 0.00 0.00 67 1014.3
20260905141550 85 0 0.0 3.0 0.00 0.00 0.00 72 1014.2